Location: Zagreb
(45.8000°N, 16.0000°E)
Time: 08:29:00
(UTC+02:00)

Courier 1B - Pass Details

Date: 12 August 2020
Orbit: 962 x 1209 km, 28.3° (Epoch: 27 September)

Event Time Altitude Azimuth Distance (km) Brightness Sun altitude
Rises 21:02:06 0° 242° (WSW) 3,949 11.1 -9.1°
Reaches altitude 10° 21:05:55 10° 225° (SW) 2,940 10.2 -9.7°
Maximum altitude 21:10:27 18° 185° (S) 2,344 9.2 -10.4°
Enters shadow 21:14:30 11° 147° (SSE) 2,754 9.3 -10.9°
Drops below altitude 10° 21:14:50 10° 145° (SE) 2,821 - -11.0°
Sets 21:18:23 0° 127° (SE) 3,729 - -11.5°
